Regional Weather Roundup
Issued by NWS

Home | Current Version | Previous Version | Graphics & Text | Print | Product List | Glossary On
Versions: 1 2 3 4 5 6 7 8 9 10 11 12 13 14 15 16 17 18 19 20 21 22 23 24 25 26 27 28 29 30 31 32 33 34 35 36 37 38 39 40 41 42 43 44 45 46 47 48 49 50
000
ASUS43 KLOT 301906
RWRIL

ILLINOIS REGIONAL WEATHER ROUNDUP
NATIONAL WEATHER SERVICE CHICAGO/ROMEOVILLE IL
200 PM CDT SAT AUG 30 2014

NOTE: "FAIR" INDICATES FEW OR NO CLOUDS BELOW 12,000 FEET WITH NO
SIGNIFICANT WEATHER AND/OR OBSTRUCTIONS TO VISIBILITY.

* THESE STATIONS ARE NOT UNDER NWS QUALITY CONTROL. THEY ALSO MAY NOT
  REPORT WEATHER SUCH AS PRECIPITATION OR FOG.

ILZ001-002-007-009-015-016-024-302000-
NORTHWEST ILLINOIS

CITY           SKY/WX    TMP DP  RH WIND       PRES   REMARKS
MOLINE         PTSUNNY   80  67  64 SW13      29.88S HX  82
STERLING*      PTSUNNY   79  68  69 W15       29.88S HX  81
SAVANNA*       PTSUNNY   81  65  58 W12       29.86S HX  82
$$

ILZ003-004-008-010-011-017-018-302000-
NORTH CENTRAL ILLINOIS

CITY           SKY/WX    TMP DP  RH WIND       PRES   REMARKS
ROCKFORD       PTSUNNY   78  66  66 SW14G23   29.86F HX  80
FREEPORT*      PTSUNNY   78  71  79 W12       29.88R HX  80
ROCHELLE*      PTSUNNY   79  68  68 W13G20    29.88S HX  81
DE KALB*       PTSUNNY   76  65  69 SW20G25   29.88S
PERU*          PTSUNNY   82  68  63 W9        29.89S HX  85
$$

ILZ005-006-012>014-019>023-302000-
NORTHEAST ILLINOIS

CITY           SKY/WX    TMP DP  RH WIND       PRES   REMARKS
CHICAGO-OHARE  PTSUNNY   81  64  56 SW17G29   29.85S HX  82
CHICAGO-MIDWAY PTSUNNY   84  69  60 SW16G29   29.85S HX  88
AURORA         PTSUNNY   81  67  62 W18G25    29.87S HX  83
LANSING*         N/A    N/A N/A N/A MISG        N/A
JOLIET*        MOSUNNY   80  66  62 SW13G21   29.88S HX  83
WAUKEGAN       PTSUNNY   78  65  63 SW20G29   29.82S HX  80
DUPAGE AIRPORT PTSUNNY   82  68  62 SW16G28   29.86S HX  85
KANKAKEE*      PTSUNNY   82  73  73 SW20G25   29.90F HX  87
WHEELING       PTSUNNY   83  65  54 SW17G29   29.85S HX  85
MORRIS*        MOSUNNY   83  70  63 W15G23    29.87F HX  87
ROMEOVILLE*    PTSUNNY   81  67  61 W17G25    29.87S HX  83
NORTHERLY ISL    N/A     82  65  56 SW8         N/A  HX  84
$$

LMZ740>746-302000-
SOUTHERN LAKE MICHIGAN

STATION/POSITION SKY/WX   TEMP    WIND        PRES    VSBY  WAVE
                          AIR SEA DIR/SP/G                  HT/PER
                          (F)     (DEG/KT/KT) (MB)    (MI)  (FT/S)
SOUTHERN BUOY              72 69  190/ 17/ 21   N/A
WAUKEGAN HARBOR            78     240/ 18/ 32   N/A
HARRISON CRIB              80     230/ 22/ 29   N/A
BURNHAM HARBOR             83     200/  6/ 20   N/A
CALUMET HARBOR             80     190/ 12/ 19 1009.8F
MICHIGAN CITY              78     190/ 17/ 26   N/A
MICHIGAN CITY 6N           78 72  210/ 17/ 21   N/A           2/ 4
ST. JOSEPH                 75 71  210/ 12/ 17   N/A           3/ 4
$$

ILZ025>027-034>036-040-047-049-050-058-095>099-302000-
WEST-CENTRAL ILLINOIS

CITY           SKY/WX    TMP DP  RH WIND       PRES   REMARKS
QUINCY         MOSUNNY   84  70  62 SW12      29.90F HX  88
GALESBURG*       N/A    N/A N/A N/A MISG        N/A
MACOMB*        CLOUDY    80  69  68 W7        29.92S HX  83
JACKSONVILLE*  MOSUNNY   86  74  67 S7        29.91F HX  93
PITTSFIELD*    PTSUNNY   83  70  63 W7        29.91F HX  88
$$

ILZ028>032-037-038-041>044-048-051>054-059>061-302000-
CENTRAL ILLINOIS

CITY           SKY/WX    TMP DP  RH WIND       PRES   REMARKS
PONTIAC        MOSUNNY   82  72  69 SW9       29.89F HX  87
DECATUR        PTSUNNY   84  73  69 S13       29.93F HX  90
PEORIA         MOSUNNY   83  70  64 W10       29.89F HX  87
LACON*         SUNNY     82  67  62 SW10G20   29.88F HX  84
LINCOLN*       PTSUNNY   85  71  64 S10G18    29.87F HX  90
SPRINGFIELD    PTSUNNY   85  72  65 SW13      29.91F HX  91
TAYLORVILLE    PTSUNNY   79  72  78 S10G18    29.93F HX  82
$$

ILZ033-039-045-046-055>057-062-063-302000-
EAST-CENTRAL ILLINOIS

CITY           SKY/WX    TMP DP  RH WIND       PRES   REMARKS
CHAMPAIGN      PTSUNNY   82  72  71 S14       29.94F HX  87
DANVILLE*      HVY RAIN  81  73  77 S16G22    29.91F HX  85
RANTOUL*       PTSUNNY   83  70  62 S14G22    29.93F HX  87
MATTOON        CLOUDY    80  71  74 SW13G22   29.96F HX  84
PARIS*         PTSUNNY   82  72  71 SW13G18   29.97F HX  86
$$

ILZ079-100>102-302000-
SOUTHWEST ILLINOIS

CITY           SKY/WX    TMP DP  RH WIND       PRES   REMARKS
BELLEVILLE     CLOUDY    82  74  78 VRB3      29.94F HX  88
CAHOKIA*       CLOUDY    83  72  69 S10       29.93F HX  88
SPARTA*        CLOUDY    79  73  81 S12       29.99S HX  82
$$

ILZ064>066-069>071-074>076-080>082-084>086-088>090-092>094-302000-
SOUTH-CENTRAL ILLINOIS

CITY           SKY/WX    TMP DP  RH WIND       PRES   REMARKS
CARBONDALE     LGT RAIN  77  73  87 S8        29.99F
CAIRO*         CLOUDY    82  75  81 S8        30.00F HX  88
EFFINGHAM*     RAIN      81  67  63 SW12      29.97F HX  83
MARION         CLOUDY    79  73  83 S12       30.01F HX  82
MT. VERNON     CLOUDY    79  70  73 S14       30.00F HX  81
CENTRALIA*     CLOUDY    81  70  69 S9G17     29.98S HX  84
SALEM*         CLOUDY    82  73  74 S14G20    29.98F HX  87
METROPOLIS*    LGT RAIN  74  74 100 S3        30.00F
$$

ILZ067-068-072-073-078-083-087-091-302000-
SOUTHEAST ILLINOIS

CITY           SKY/WX    TMP DP  RH WIND       PRES   REMARKS
LAWRENCEVILLE  CLOUDY    77  72  84 SW12      30.01S
FLORA*         CLOUDY    79  71  77 S13       29.99F HX  82
FAIRFIELD*     CLOUDY    79  75  89 S10G17    30.00S HX  82
HARRISBURG*    LGT RAIN  73  72  98 SE8       30.02F
ROBINSON*      CLOUDY    79  75  87 S9        30.01S HX  84
CARMI*         RAIN      77  76  96 SW3       30.02R
$$

ABBREVIATIONS USED IN REMARKS
   TC - TEMPERATURE IN CELSIUS
  WCI - WIND CHILL INDEX
   HX - HEAT INDEX
  VSB - VISIBILITY
$$



USA.gov is the U.S. government's official web portal to all federal, state and local government web resources and services.